Regional Weather Roundup
Issued by NWS

Home | Current Version | Previous Version | Text Only | Print | Product List | Glossary On
Versions: 1 2 3 4 5 6 7 8 9 10 11 12 13 14 15 16 17 18 19 20 21 22 23 24 25 26 27 28 29 30 31 32 33 34 35 36 37 38 39 40 41 42 43 44 45 46 47 48 49 50
000
ASUS43 KLSX 200210
RWRMO

WEATHER SUMMARY FOR MISSOURI
NATIONAL WEATHER SERVICE SPRINGFIELD MO
800 PM CST SUN FEB 19 2017

NOTE: "FAIR" INDICATES FEW OR NO CLOUDS BELOW 12,000 FEET WITH NO
       SIGNIFICANT WEATHER AND/OR OBSTRUCTIONS TO VISIBILITY.
       CURRENT SKY AND/OR WEATHER CONDITIONS ARE NOT AVAILABLE FOR
       CHILLICOTHE AND FARMINGTON.

MOZ001>031-035>038-043-044-053-054-200300-
...NORTHERN AND WESTERN MISSOURI...

CITY           SKY/WX    TMP DP  RH WIND       PRES   REMARKS
KANSAS CTY INT CLOUDY    63  54  72 S8        29.88S
KANSAS C DTWN  PTCLDY    70  53  54 S8        29.88S
LEE`S SUMMIT   PTCLDY    66  53  63 S7        29.90S
ST JOSEPH      PTCLDY    62  54  74 S7        29.87S
CHILLICOTHE      N/A     63  46  54 SE6       29.92S
KIRKSVILLE     PTCLDY    58  45  62 SE7       29.96R

$$
MOZ066>068-077>081-088>096-101>105-200300-
...SOUTHWEST MISSOURI...

CITY           SKY/WX    TMP DP  RH WIND       PRES   REMARKS
SPRINGFIELD    CLEAR     65  56  72 SE15      29.97R
JOPLIN         PTCLDY    63  54  72 S8        29.92F
BRANSON        CLEAR     63  55  77 SE10      30.01S

$$
MOZ032>034-039>042-045>050-055>058-069>072-200300-
...CENTRAL MISSOURI...

CITY           SKY/WX    TMP DP  RH WIND       PRES   REMARKS
COLUMBIA       CLOUDY    65  47  52 SE9       29.98R
JEFFERSON CITY PTCLDY    64  46  52 SE9       29.98R
ROLLA          CLEAR     61  51  70 MISG      30.01R
SEDALIA        CLEAR     67  51  56 SE9       29.95S
WHITEMAN AFB   CLEAR     67  55  64 S8        29.92R
WARRENSBURG    PTCLDY    63  50  63 SE8       29.91S
OSAGE BEACH    CLEAR     65  55  70 SE10G17   30.00R

$$
MOZ051-052-059>065-200300-
...EAST CENTRAL MISSOURI...

CITY           SKY/WX    TMP DP  RH WIND       PRES   REMARKS
ST LOUIS INTL  PTCLDY    63  52  67 SE13      30.03R
SPIRIT OF STL  PTCLDY    64  52  64 SE6       30.01R
ST CHARLES     CLEAR     57  50  77 E10       30.02R

$$
MOZ072>076-082>087-097>100-106>115-200300-
...SOUTH CENTRAL AND SOUTHEAST MISSOURI...

CITY           SKY/WX    TMP DP  RH WIND       PRES   REMARKS
CAPE GIRARDEAU CLEAR     50  48  93 CALM      30.07S FOG
FARMINGTON     CLEAR     58  51  78 S7        30.07R
POPLAR BLUFF   CLEAR     56  55  97 CALM      30.06R FOG
WEST PLAINS    CLEAR     61  55  81 SE6       30.06R

$$




USA.gov is the U.S. government's official web portal to all federal, state and local government web resources and services.